Hourly Data Report for November 14, 2019

TORONTO CITY
ONTARIO
Current Station Operator: ECCC - MSC

43°40'00.000" N
79°24'00.000" W
112.50 m
6158355
71508
XTO

Download Data

Hourly Data (November 2019)
Hourly Data Report for November 14, 2019
TIME
LST
Temp Definition
°C
Dew Point Definition
°C
Rel Hum Definition
%
Precip. Amount Definition
mm

Wind Dir Definition
10's deg

Wind Spd Definition
km/h
Visibility Definition
km
Stn Press Definition
kPa
Hmdx Definition


Wind Chill Definition


Weather Definition


00:00 0.0 -6.5 62 0.0       100.84     LegendNANA
01:00 0.0 -6.6 61 0.0       100.78     LegendNANA
02:00 0.1 -6.7 60 0.0       100.74     LegendNANA
03:00 0.0 -6.4 62 0.0       100.68     LegendNANA
04:00 0.4 -5.8 63 0.0       100.62     LegendNANA
05:00 0.5 -4.8 67 0.0       100.57     LegendNANA
06:00 0.7 -3.7 72 0.0       100.58     LegendNANA
07:00 -0.3 -4.3 74 0.2       100.62     LegendNANA
08:00 -0.9 -5.1 73 0.0       100.67     LegendNANA
09:00 -1.2 -5.3 73 0.2       100.71     LegendNANA
10:00 -1.5 -4.6 79 0.2       100.72     LegendNANA
11:00 -1.0 -4.5 77 0.2       100.72     LegendNANA
12:00 0.0 -4.5 72 0.0       100.71     LegendNANA
13:00 0.9 -5.5 62 0.0       100.68     LegendNANA
14:00 1.2 -5.2 62 0.0       100.66     LegendNANA
15:00 1.5 -5.9 57 0.0       100.67     LegendNANA
16:00 1.2 -5.4 61 0.0       100.71     LegendNANA
17:00 1.1 -4.8 65 0.0       100.73     LegendNANA
18:00 1.1 -4.6 66 0.0       100.77     LegendNANA
19:00 1.0 -4.5 67 0.0       100.79     LegendNANA
20:00 0.8 -4.2 69 0.0       100.78     LegendNANA
21:00 1.1 -5.3 62 0.0       100.77     LegendNANA
22:00 0.9 -5.5 62 0.0       100.72     LegendNANA
23:00 0.8 -5.0 65 0.0       100.69     LegendNANA

Notes on Data Quality.

Legend

  • E = Estimated
  • M = Missing
  • NA = Not Available*
  • [empty] = Indicates an unobserved value
Date modified: